Regional Weather Roundup
Issued by NWS Upton, NY

Current Version | Previous Version | Text Only | Print | Product List | Glossary Off
Versions: 1 2 3 4 5 6 7 8 9 10 11 12 13 14 15 16 17 18 19 20 21 22 23 24 25 26 27 28 29 30 31 32 33 34 35 36 37 38 39 40 41 42 43 44 45 46 47 48
000 ASUS41 KOKX 020805 RWROKX REGIONAL WEATHER ROUNDUP NATIONAL WEATHER SERVICE NEW YORK NY 400 AM EDT SAT AUG 02 2014 NOTE: "FAIR" INDICATES FEW OR NO CLOUDS BELOW 12,000 FEET WITH NO SIGNIFICANT WEATHER AND/OR OBSTRUCTIONS TO VISIBILITY. NYZ071-072-176-178-NJZ106-104-020900- NEW YORK CITY METRO AREA CITY SKY/WX TMP DP RH WIND PRES REMARKS CENTRAL PARK LGT RAIN 70 63 78 NE3 30.19S LAGUARDIA APRT LGT RAIN 71 67 87 NE6 30.16S KENNEDY INTL LGT RAIN 72 67 84 E3 30.17S NEWARK/LIBERTY LGT RAIN 73 63 70 CALM 30.16S BRNX BOT. GARD N/A 70 64 83 E1 30.17F TETERBORO LGT RAIN 72 67 84 CALM 30.15F $$ NYZ177-179-078>081-020900- LONG ISLAND NEW YORK CITY SKY/WX TMP DP RH WIND PRES REMARKS FARMINGDALE CLOUDY 70 68 93 CALM 30.16F ISLIP LGT RAIN 71 67 87 NE3 30.15F SHIRLEY LGT RAIN 69 67 93 CALM 30.17F WESTHAMPTON LGT RAIN 70 67 90 SE5 30.18F MONTAUK POINT N/A 70 67 90 E3 30.19F $$ NYZ052-065-067-020900- HUDSON VALLEY CITY SKY/WX TMP DP RH WIND PRES REMARKS WHITE PLAINS CLOUDY 68 65 90 CALM 30.17F NEWBURGH MOCLDY 66 66 100 CALM 30.18F MONTGOMERY CLOUDY 65 63 93 CALM 30.17F POUGHKEEPSIE CLOUDY 67 65 93 CALM 30.16F FOG ALBANY CLOUDY 68 64 87 VRB3 30.17S $$ NJZ001-105-106-008-010-013-015-019>022-104-020900- NEW JERSEY CITY SKY/WX TMP DP RH WIND PRES REMARKS NEWARK/LIBERTY LGT RAIN 73 63 70 CALM 30.16S TETERBORO LGT RAIN 72 67 84 CALM 30.15F CALDWELL CLOUDY 68 66 93 CALM 30.17F FOG MORRISTOWN CLOUDY 68 66 94 CALM 30.16F FOG SOMERVILLE LGT RAIN 67 65 93 NW3 30.14F FOG LINDEN LGT RAIN 76 71 84 S3 30.17F SUSSEX CLOUDY 68 64 87 CALM 30.17F ANDOVER N/A 66 64 93 CALM 30.17F TRENTON LGT RAIN 68 67 96 CALM 30.15F FOG MILLVILLE LGT RAIN 68 66 93 E5 30.13F ATLANTIC CITY HVY RAIN 67 66 97 SW6 30.14S FOG WRIGHTSTOWN LGT RAIN 67 67 99 E5 30.14S TOMS RIVER CLOUDY 68 66 94 N3 30.15S BELMAR CLOUDY 66 61 82 N6 30.16F $$ PAZ047>061-062-071-020900- EASTERN PENNSYLVANIA CITY SKY/WX TMP DP RH WIND PRES REMARKS PHILADELPHIA RAIN 68 64 87 CALM 30.15F FOG ALLENTOWN LGT RAIN 67 64 90 CALM 30.16F SCRANTON CLOUDY 67 61 81 E3 30.17S $$ CTZ002-004>006-009-010-012-RIZ004-006-007-MAZ004-011-015-020900- SOUTHERN NEW ENGLAND IN CT CITY SKY/WX TMP DP RH WIND PRES REMARKS BRADLEY INTL CLOUDY 67 64 90 NW3 30.18F HARTFORD LGT RAIN 69 66 90 CALM 30.18F DANBURY CLOUDY 67 63 87 SE3 30.20F WTRBRY/OXFORD CLOUDY 66 63 88 CALM 30.21F BRIDGEPORT CLOUDY 72 69 90 E7 30.17F MERIDEN CLOUDY 68 65 90 CALM 30.18F NEW HAVEN CLOUDY 73 69 87 E3 30.17F CHESTER FAIR 68 68 100 CALM 30.20F FOG GROTON CLOUDY 68 68 100 NE3 30.18F WILLIMANTIC LGT RAIN 69 66 90 CALM 30.21S IN RI CITY SKY/WX TMP DP RH WIND PRES REMARKS PROVIDENCE LGT RAIN 69 67 93 S3 30.21F BLOCK ISLAND CLOUDY 68 64 88 E5 30.19F WESTERLY CLOUDY 69 66 90 N5 30.19F IN MA CITY SKY/WX TMP DP RH WIND PRES REMARKS BOSTON LGT RAIN 68 65 90 S5 30.20F WORCESTER CLOUDY 66 64 93 S6 30.22F WESTFIELD CLOUDY 66 64 93 CALM 30.19S FOG PROVINCETOWN CLOUDY 66 61 82 S3 30.22F NANTUCKET CLOUDY 64 60 87 E5 30.21F $$ ANZ330-335-338-340-345-350-353-355-020900- COASTAL MARINE OBSERVATIONS STATION/POSITION TIME SKY/WX TEMP WIND PRES VSBY WAVE AIR SEA DIR/SP/G HT/PER (UTC) (F) (DEG/KT/KT) (MB) (MI) (FT/S) NY HARB ENTRANCE NOT AVBL 4S FIRE IS NOT AVBL 23SW MTP 0800 70 71 1021.0 2/ 7 HUDSON CANYON 0800 74 74 100/ 8/ 10 1019.7 3/ 7 EXECUTION ROCKS 0800 71 70 30/ 10/ 12 N/A WESTERN LI SOUND 0800 71 50/ 8/ 10 N/A 0 CENTRAL LI SOUND 0700 71 72 100/ 6/ 8 N/A 0 EASTERN LI SOUND 0700 69 68 60/ 6/ 8 N/A ROBBINS REEF 0800 72 140/ 2/ 2 N/A $$ >>>>>>>>>>>>>>>>>>>>>>>>>>>> KEY <<<<<<<<<<<<<<<<<<<<<<<<<<< > < > SKY/WX - SKY CONDITION/PRESENT WEATHER < > TMP - TEMPERATURE IN FAHRENHEIT < > DP - DEWPOINT IN FAHRENHEIT < > RH - RELATIVE HUMIDITY IN PERCENT < > WIND - DIRECTION AND SPEED IN MPH < > PRES - MEAN SEA LEVEL PRESSURE IN INCHES OF HG < > WCI - WIND CHILL INDEX < > VSB - VISIBILITY IN MILES < > HX - HEAT INDEX < > TC - TEMPERATURE IN CELSIUS < > VRB - VARIABLE WIND DIRECTION < > < >>>>>>>>>>>>>>>>>>>>>>>>>>>> KEY <<<<<<<<<<<<<<<<<<<<<<<<<<<

USA.gov is the U.S. government's official web portal to all federal, state and local government web resources and services.